Location: Sungai Liu
(2.3667°N, 113.8667°E)
Time: 13:46:25
(UTC+00:00)

ATLAS 5 CENTAUR R/B - Pass Details

Date: 20 May 2022
Orbit: 293 x 12462 km, 20.2° (Epoch: 03 July)

Event Time Altitude Azimuth Distance (km) Brightness Sun altitude
Rises 12:20:39 0° 286° (WNW) 9,054 8.3 -27.0°
Reaches altitude 10° 12:31:32 10° 300° (WNW) 5,486 6.8 -29.4°
Maximum altitude 12:40:15 20° 341° (NNW) 2,608 4.6 -31.4°
Enters shadow 12:43:22 14° 18° (NNE) 2,232 3.9 -32.1°
